Regional Weather Roundup
Issued by NWS Charleston, SC

Current Version | Previous Version | Graphics & Text | Print | Product List | Glossary On
Versions: 1 2 3 4 5 6 7 8 9 10 11 12 13 14 15 16 17 18 19 20 21 22 23 24 25 26 27 28 29 30 31 32 33 34 35 36 37 38 39 40 41 42 43 44 45 46 47 48 49 50
000
ASUS42 KCHS 230025
RWRCHS

REGIONAL WEATHER ROUNDUP
NATIONAL WEATHER SERVICE CHARLESTON SC
700 PM EST MON DEC 22 2014

NOTE: "FAIR" INDICATES FEW OR NO CLOUDS BELOW 12,000 FEET WITH NO
SIGNIFICANT WEATHER AND/OR OBSTRUCTIONS TO VISIBILITY.

NOT ALL STATIONS ARE QUALITY CONTROLLED BY THE NATIONAL
WEATHER SERVICE. USE DATA WITH CAUTION...ESPECIALLY
DEWPOINT OBSERVATIONS.

SCZ027-030-031-034>040-042>050-230100-
...SOUTHEAST SOUTH CAROLINA...

CITY           SKY/WX    TMP DP  RH WIND       PRES   REMARKS
N CHARLESTON   CLOUDY    47  45  93 N7        29.98F
6HR MIN TEMP:  47; 6HR MAX TEMP:  48; 6HR PCP:  0.49;

WATERFRONT PRK   N/A     50 N/A N/A N14         N/A
MOUNT PLEASANT CLOUDY    46  46 100 N6        29.98F
PINOPOLIS        N/A     46  45  93 NE8       29.94
MONCKS CORNER    N/A     46  45  93 N5        29.99F FOG
SUMMERVILLE    CLOUDY    45  45 100 N7        29.99S FOG
BEAUFORT MCAS  LGT RAIN  49  48  97 NE6       29.97S
6HR MIN TEMP:  48; 6HR MAX TEMP:  49; 6HR PCP:  0.92;

BEAUFORT ARPT  CLOUDY    50  50 100 NE8       29.96S
HILTON HEAD IS CLOUDY    50  50 100 N5        29.98R
WALTERBORO     CLOUDY    46 N/A N/A N5        29.99S FOG
ALLENDALE      FOG       46  46 100 NE5       29.98R VSB 3/4

...SOUTHERN MIDLANDS AND PEE DEE...

CITY           SKY/WX    TMP DP  RH WIND       PRES   REMARKS
GEORGETOWN     NOT AVBL
KINGSTREE      NOT AVBL
ORANGEBURG     CLOUDY    44  42  93 NE7       30.00F FOG
6HR MIN TEMP:  44; 6HR MAX TEMP:  46; 6HR PCP:  0.02;

BARNWELL       CLOUDY    46  45  93 NE6       30.00R
AIKEN          CLOUDY    43  43 100 NE8       30.02S FOG
MANNING        CLOUDY    45 N/A N/A N5        30.02S
COLUMBIA       CLOUDY    45  42  89 NE3       30.02R
6HR MIN TEMP:  44; 6HR MAX TEMP:  46; 6HR PCP:  0.13;

SUMTER         CLOUDY    43  41  93 NE12      30.01S
6HR MIN TEMP:  43; 6HR MAX TEMP:  44; 6HR PCP:  0.09;

FLORENCE       CLOUDY    43  41  93 NE10      30.03S FOG
6HR MIN TEMP:  43; 6HR MAX TEMP:  44; 6HR PCP:  0.05;

MYRTLE BEACH   CLOUDY    46  43  87 N8        30.03R FOG
N MYRTLE BEACH CLOUDY    46  44  93 VRB3      30.03R
6HR MIN TEMP:  46; 6HR MAX TEMP:  47; 6HR PCP:  0.05;


$$

GAZ063-065-086>088-099>101-113>116-118-119-134>141-150-230100-
...SOUTHEAST GEORGIA...

CITY           SKY/WX    TMP DP  RH WIND       PRES   REMARKS
SAVANNAH ARPT  FOG       50  48  93 NE5       29.96S VSB 3/4
6HR MIN TEMP:  49; 6HR MAX TEMP:  54; 6HR PCP:  0.95;

HUNTER AAF     MOCLDY    51  51  99 NE3       29.94R
6HR MIN TEMP:  50; 6HR MAX TEMP:  55; 6HR PCP:  0.60;

FORT STEWART   CLOUDY    51  50  96 NE5       29.93S
6HR MIN TEMP:  50; 6HR MAX TEMP:  54; 6HR PCP:  0.50;

STATESBORO     CLOUDY    47  47 100 CALM      29.96S
SYLVANIA       CLOUDY    47  47 100 NE5       29.97R FOG
CLAXTON        CLOUDY    48  48 100 CALM      29.97R

...CSRA...CENTRAL AND FAR SOUTHEAST GEORGIA...

CITY           SKY/WX    TMP DP  RH WIND       PRES   REMARKS
THOMSON        CLOUDY    46  46 100 E7        30.02S
AUGUSTA-BUSH   CLOUDY    46  44  93 NE8       29.99S
6HR MIN TEMP:  46; 6HR MAX TEMP:  47; 6HR PCP:  0.03;

AUGUSTA-DANIEL CLOUDY    46  44  93 NE9       29.99R
SWAINSBORO     CLOUDY   N/A N/A N/A NE3       29.97R FOG
VIDALIA        CLOUDY    50  50 100 E9        29.95S FOG
EASTMAN        FOG       49  49 100 E6        29.96R VSB 1
HAZLEHURST     FOG       52  52 100 E5        29.93S VSB 3/4
ALMA           CLOUDY    55  54  96 E6        29.92F FOG
6HR MIN TEMP:  50; 6HR MAX TEMP:  55; 6HR PCP:  0.03;

WAYCROSS       CLOUDY    57  57  99 E6        29.92F
JESUP          LGT RAIN  55  55 100 CALM      29.93F
BAXLEY         CLOUDY    54  54 100 N5        29.93S FOG
BRUNSWICK      CLOUDY    55  54  94 NE5       29.94F
SAINT SIMONS   CLOUDY    56  55  97 N3        29.94R FOG
6HR MIN TEMP:  55; 6HR MAX TEMP:  57; 6HR PCP:  0.37;


$$

SCZ027-028-034-036>038-045-046-048>050-GAZ119-141-230100-
...LAKE AND SUPPLEMENTAL COASTAL OBSERVATIONS...

STATION/POSITION TIME  TEMP    WIND        PRES    WAVE   SWELL
                       AIR SEA DIR/SP/G            HT/PER HT/PER/DIR
                 (UTC) (F)     (DEG/KT/KT) (MB)    (FT/S) (FT/S/D)
UPR LAKE MARION  NOT AVBL
WINYAH BAY       0000   46     320/  4     1016.0S
LAKE MURRAY      0000   42      40/  2/  5 1016.3R
ACE BASIN NERRS  0000   48      20/  2     1014.0S
FORT PULASKI     0000   51 55   10/  6/  7 1014.8R
SAPELO ISLAND    0000   55      20/  2     1014.0R

$$

ANZ835-935-AMZ111-154-330-350-352-354-370-450-454-472-230100-
...C-MAN AND BUOY OBSERVATIONS...

STATION/POSITION TIME  TEMP    WIND        PRES    WAVE   SWELL
                       AIR SEA DIR/SP/G            HT/PER HT/PER/DIR
                 (UTC) (F)     (DEG/KT/KT) (MB)    (FT/S) (FT/S/D)
BUOY 41004       0000   65 73   60/  8/ 12 1013.9F   4/ 8   3/ 8
BUOY 41008       0000   60 59  110/ 10/ 12 1012.8R   4/ 5   2/ 80/ 6
FOLLY BEACH CMAN 0000   49      10/ 11/ 13 1015.2S
CAPERS NEARSHORE 2300   50      20/ 12/ 14   N/A
FRIPP NEARSHORE  NOT AVBL


STATION/POSITION TIME  TEMP    WIND        PRES    WAVE   SWELL
                       AIR SEA DIR/SP/G            HT/PER HT/PER/DIR
                 (UTC) (F)     (DEG/KT/KT) (MB)    (FT/S) (FT/S/D)
5E ST. MARYS GA  0000      61                N/A     3/ 9
FRYING PAN BUOY  0000   59 68   90/ 14/ 16 1015.0F   4/ 7   3/ 90/ 7
BUOY 41025       0000   61                 1014.1S   7/ 9
CAPE LOOKOUT NC  0000   51     310/  7/  9 1016.1R
BUOY 41002       NOT AVBL
BUOY 41010       0000   76 77  190/ 14/ 17 1015.2R   4/ 9   3/ 70/ 9
ST AUGUSTINE FL  0000   65     180/ 12/ 13 1013.3R


$$



USA.gov is the U.S. government's official web portal to all federal, state and local government web resources and services.